EW8311 Weather Reports


time (UTC)temp
F
wind
direction
speed
knots
gust
knots
rain 1hr
in
rain 24hr
in
rain mn
in
humidity
%
barometer
mb
20260903053011 82 291 0.0 1.7 0.00 0.00 0.00 55 1007.0
20260903051511 80 306 1.7 3.5 0.00 0.00 0.00 57 1007.0
20260903050010 81 98 0.0 0.0 0.00 0.00 0.00 59 1006.9
20260903044510 81 98 0.0 0.0 0.00 0.00 0.00 55 1006.9
20260903043015 82 98 0.0 0.0 0.00 0.00 0.00 54 1006.7
20260903041517 82 98 0.0 0.0 0.00 0.00 0.00 57 1006.6
20260903040009 83 49 0.0 0.9 0.00 0.00 0.00 53 1006.6
20260903034513 83 107 0.0 0.0 0.00 0.00 0.00 54 1006.5
20260903033007 84 107 0.0 0.9 0.00 0.00 0.00 49 1006.4
20260903031506 83 83 0.0 0.9 0.00 0.00 0.00 52 1006.1
20260903030006 82 334 0.0 0.0 0.00 0.00 0.00 53 1005.8
20260903024505 82 334 0.0 0.0 0.00 0.00 0.00 54 1005.7
20260903023020 83 334 0.0 0.0 0.00 0.00 0.00 53 1005.5
20260903021505 84 334 0.0 0.0 0.00 0.00 0.00 50 1005.3
20260903020004 84 334 0.0 0.0 0.00 0.00 0.00 51 1005.5
20260903014504 85 334 0.0 0.0 0.00 0.00 0.00 50 1005.6
20260903013003 87 334 0.0 0.9 0.00 0.00 0.00 47 1005.4
20260903011502 87 341 1.7 3.5 0.00 0.00 0.00 46 1005.2
20260903010002 88 318 2.6 5.2 0.00 0.00 0.00 43 1005.2
20260903004501 90 289 1.7 3.5 0.00 0.00 0.00 43 1005.0
20260903003114 89 262 0.0 3.5 0.00 0.00 0.00 43 1005.1
20260903001600 90 332 0.9 4.3 0.00 0.00 0.00 42 1005.1
20260903000108 91 322 2.6 4.3 0.00 0.00 0.00 42 1005.0
20260902234605 94 299 0.9 4.3 0.00 0.00 0.00 38 1005.0
20260902233059 94 318 2.6 6.1 0.00 0.00 0.00 39 1004.9
20260902231556 93 269 2.6 7.0 0.00 0.00 0.00 38 1005.2
20260902230105 93 224 2.6 6.1 0.00 0.00 0.00 39 1005.4
20260902224610 92 218 2.6 7.8 0.00 0.00 0.00 40 1005.6
20260902223110 91 72 3.5 7.0 0.00 0.00 0.00 42 1005.6
20260902221558 90 278 1.7 5.2 0.00 0.00 0.00 40 1005.7
20260902220051 89 268 1.7 6.1 0.00 0.00 0.00 40 1005.9
20260902214615 90 256 2.6 7.0 0.00 0.00 0.00 41 1005.9
20260902213051 91 295 1.7 7.8 0.00 0.00 0.00 40 1005.8
20260902211551 92 242 5.2 10.4 0.00 0.00 0.00 39 1006.0
20260902210050 94 272 2.6 8.7 0.00 0.00 0.00 38 1006.0
20260902204546 94 327 4.3 9.6 0.00 0.00 0.00 38 1006.1
20260902203043 94 310 3.5 7.0 0.00 0.00 0.00 39 1006.4
20260902201550 94 252 4.3 7.0 0.00 0.00 0.00 39 1006.4
20260902200039 93 330 2.6 7.0 0.00 0.00 0.00 40 1006.7
20260902194540 92 327 3.5 7.0 0.00 0.00 0.00 42 1007.1
20260902193034 92 301 2.6 6.1 0.00 0.00 0.00 44 1007.3
20260902191529 91 252 2.6 7.0 0.00 0.00 0.00 45 1007.6
20260902190025 91 255 1.7 7.8 0.00 0.00 0.00 43 1007.9
20260902184523 89 253 1.7 6.1 0.00 0.00 0.00 47 1008.1
20260902183021 90 299 2.6 5.2 0.00 0.00 0.00 47 1008.2
20260902181520 89 323 1.7 4.3 0.00 0.00 0.00 48 1008.4
20260902180018 88 271 0.9 4.3 0.00 0.00 0.00 50 1008.7
20260902174522 87 340 1.7 5.2 0.00 0.00 0.00 50 1008.8
20260902173013 87 270 1.7 3.5 0.00 0.00 0.00 51 1008.9
20260902171511 86 328 0.9 3.5 0.00 0.00 0.00 51 1009.0
20260902170009 86 265 0.0 1.7 0.00 0.00 0.00 53 1009.1
20260902164514 85 330 0.9 2.6 0.00 0.00 0.00 52 1009.2
20260902163008 85 262 0.0 1.7 0.00 0.00 0.00 54 1009.3
20260902161515 85 280 0.0 1.7 0.00 0.00 0.00 53 1009.2
20260902160007 84 316 0.0 1.7 0.00 0.00 0.00 55 1009.2
20260902154512 84 312 0.0 1.7 0.00 0.00 0.00 54 1009.2
20260902153001 83 266 0.0 0.9 0.00 0.00 0.00 55 1009.4
20260902151602 84 127 0.0 1.7 0.00 0.00 0.00 55 1009.3
20260902150058 81 335 0.9 2.6 0.00 0.00 0.00 59 1009.2
20260902144653 80 304 0.0 1.7 0.00 0.00 0.00 62 1009.2
20260902143051 81 85 0.0 0.0 0.00 0.00 0.00 66 1009.2
20260902141548 79 103 0.0 0.0 0.00 0.00 0.00 68 1009.1
20260902140046 76 103 0.0 0.0 0.00 0.00 0.00 74 1008.9
20260902134543 76 103 0.0 0.0 0.00 0.00 0.00 73 1008.8
20260902133054 74 103 0.0 0.0 0.00 0.00 0.00 75 1008.5
20260902131541 75 103 0.0 0.0 0.00 0.00 0.00 73 1008.4
20260902130040 75 103 0.0 0.0 0.00 0.00 0.00 72 1008.4
20260902124539 75 103 0.0 0.0 0.00 0.00 0.00 72 1008.5
20260902123038 74 103 0.0 0.9 0.00 0.00 0.00 72 1008.3
20260902121537 74 103 0.0 0.0 0.00 0.00 0.00 74 1008.3
20260902120037 73 103 0.0 0.0 0.00 0.00 0.00 75 1008.4
20260902114541 73 103 0.0 0.0 0.00 0.00 0.00 77 1008.3
20260902113049 73 103 0.0 0.0 0.00 0.00 0.00 74 1008.3
20260902111531 74 103 0.0 0.0 0.00 0.00 0.00 73 1008.2
20260902110029 75 103 0.0 0.0 0.00 0.00 0.00 71 1008.2
20260902104535 76 103 0.0 0.0 0.00 0.00 0.00 68 1008.3
20260902103030 76 101 0.0 0.9 0.00 0.00 0.00 67 1008.4
20260902101535 76 93 0.0 0.9 0.00 0.00 0.00 68 1008.5
20260902100026 75 97 0.0 0.0 0.00 0.00 0.00 68 1008.4
20260902094526 75 97 0.0 0.0 0.00 0.00 0.00 69 1008.4
20260902093027 75 97 0.0 0.0 0.00 0.00 0.00 70 1008.4
20260902091532 76 97 0.0 0.9 0.00 0.00 0.00 67 1008.4
20260902090024 75 97 0.0 0.9 0.00 0.00 0.00 70 1008.3
20260902084523 75 97 0.0 0.0 0.00 0.00 0.00 71 1008.2
20260902083021 76 97 0.0 0.0 0.00 0.00 0.00 68 1008.2
20260902081523 76 97 0.0 0.0 0.00 0.00 0.00 67 1008.2
20260902080020 77 97 0.0 0.0 0.00 0.00 0.00 67 1008.2
20260902074519 76 97 0.0 0.0 0.00 0.00 0.00 68 1008.2
20260902073018 76 97 0.0 0.0 0.00 0.00 0.00 69 1008.2
20260902071515 76 97 0.0 0.0 0.00 0.00 0.00 67 1008.3
20260902070013 77 97 0.0 0.0 0.00 0.00 0.00 66 1008.2
20260902064512 78 97 0.0 0.0 0.00 0.00 0.00 63 1008.2
20260902063011 78 97 0.0 0.0 0.00 0.00 0.00 65 1008.0
20260902061518 78 97 0.0 0.0 0.00 0.00 0.00 62 1008.1
20260902060009 79 97 0.0 0.0 0.00 0.00 0.00 61 1008.2
20260902054509 81 97 0.0 0.0 0.00 0.00 0.00 57 1008.1